Mather AFB, CA

8:03 PM PDT on October 20, 2019 (GMT -0700)
Mather

Weather History for KMHR - September, 2019

Change the Weather History Date:

Wednesday, September 18, 2019

  Actual Average Record
Temperature  
Mean Temperature 66 °F -  
Max Temperature 75 °F 85 °F 100 °F (2000)
Min Temperature 57 °F 55 °F 46 °F (2008)
Cooling Degree Days 1    
Growing Degree Days 16 (Base 50)    
Moisture  
Dew Point 56 °F    
Average Humidity 73    
Maximum Humidity 94    
Minimum Humidity 44    
Precipitation  
Precipitation 0.00 in - - ()
Sea Level Pressure  
Sea Level Pressure 29.91 in    
Wind  
Wind Speed 10 mph (SSE)    
Max Wind Speed 14 mph    
Max Gust Speed 20 mph    
Visibility 9 miles    
Events Rain    
Averages and records for this station are not official NWS values.
T = Trace of Precipitation, MM = Missing Value Source: NWS Daily Summary

Daily Weather History Graph

Daily Weather History Graph

Search for Another Location

Airport or City:

Astronomy

Sep. 18, 2019 Rise Set
Actual Time 6:49 AM PDT 7:08 PM PDT
Civil Twilight 6:22 AM PDT 7:35 PM PDT
Nautical Twilight 5:51 AM PDT 8:06 PM PDT
Astronomical Twilight 5:19 AM PDT 8:38 PM PDT
Moon 9:48 PM PDT (9/18) 10:55 AM PDT (9/18)
Length of Visible Light 13h 12m
Length of Day
12h 19m
Waning Gibbous, 82% of the Moon is Illuminated
Sep 18
Waning Gibbous
Sep 21
Last Quarter
Sep 28
New
Oct 5
First Quarter
Oct 13
Full

Hourly Weather History & Observations

Time (PDT) Temp. Dew Point Humidity Pressure Visibility Wind Dir Wind Speed Gust Speed Precip Events Conditions
2:45 AM 59.0 °F 55.4 °F 88% 29.92 in 10.0 mi SE 10.4 mph - N/A   Clear
4:45 AM 59.0 °F 55.4 °F 88% 29.91 in 10.0 mi SE 11.5 mph - N/A   Clear
5:45 AM 57.2 °F 55.4 °F 94% 29.91 in 10.0 mi SE 9.2 mph - N/A   Clear
6:45 AM 59.0 °F 55.4 °F 88% 29.92 in 10.0 mi SE 8.1 mph - N/A   Mostly Cloudy
8:35 AM 64.4 °F 57.2 °F 77% 29.93 in 10.0 mi SSE 8.1 mph 15.0 mph N/A   Overcast
9:00 AM 64.4 °F 57.2 °F 77% 29.93 in 10.0 mi SSE 11.5 mph - N/A   Overcast
9:20 AM 64.4 °F 57.2 °F 77% 29.94 in 5.0 mi SSE 11.5 mph 17.3 mph N/A   Haze
9:25 AM 62.6 °F 59.0 °F 88% 29.94 in 2.0 mi SSE 11.5 mph 17.3 mph N/A Rain Haze
10:10 AM 62.6 °F 60.8 °F 94% 29.95 in 5.0 mi SSE 9.2 mph - N/A   Mostly Cloudy
10:48 AM 64.4 °F 60.8 °F 88% 29.94 in 8.0 mi SSE 12.7 mph - N/A   Mostly Cloudy
11:50 AM 68.0 °F 62.6 °F 83% 29.94 in 10.0 mi SSE 10.4 mph 17.3 mph N/A   Mostly Cloudy
12:45 PM 69.8 °F 60.8 °F 73% 29.93 in 10.0 mi SE 10.4 mph 17.3 mph N/A   Mostly Cloudy
1:45 PM 71.6 °F 59.0 °F 64% 29.92 in 10.0 mi SSE 10.4 mph 19.6 mph N/A   Mostly Cloudy
2:45 PM 75.2 °F 59.0 °F 57% 29.91 in 10.0 mi ESE 11.5 mph - N/A   Mostly Cloudy
3:45 PM 73.4 °F 57.2 °F 57% 29.89 in 10.0 mi SSE 13.8 mph - N/A   Mostly Cloudy
4:45 PM 73.4 °F 57.2 °F 57% 29.88 in 10.0 mi ESE 12.7 mph 18.4 mph N/A   Mostly Cloudy
5:45 PM 73.4 °F 57.2 °F 57% 29.87 in 10.0 mi ESE 11.5 mph - N/A   Mostly Cloudy
6:47 PM 73.4 °F 50.0 °F 44% 29.87 in 10.0 mi SSW 12.7 mph - N/A   Mostly Cloudy
7:45 PM 68.0 °F 50.0 °F 52% 29.87 in 10.0 mi SW 10.4 mph - N/A   Scattered Clouds
8:45 PM 66.2 °F 51.8 °F 60% 29.88 in 10.0 mi SSW 6.9 mph - N/A   Scattered Clouds
10:45 PM 60.8 °F 51.8 °F 72% 29.89 in 10.0 mi South 3.5 mph - N/A   Partly Cloudy
11:30 PM 59.0 °F 51.8 °F 77% 29.89 in 10.0 mi Calm Calm - N/A   Partly Cloudy